Helicity
63 59 51 77 98 98 68 83 101 117 94 39 34 42 46 64 56 41 23 24 82 157 210 187 178 87 125 109 78 74 77 11 49 111 105 120 175 194 193 150 157 152 162 131 89 91 100
57 54 102 97 76 57 70 93 106 82 54 15 32 43 47 34 60 49 32 19 70 104 159 156 71 85 172 90 56 96 52 48 47 84 91 116 123 112 137 143 156 149 102 116 93 92 107
49 84 98 73 44 86 103 88 61 44 46 38 44 48 29 14 22 33 22 20 46 115 149 174 199 83 105 59 128 83 60 79 66 65 78 43 93 158 143 172 131 155 158 179 129 86 96
81 85 74 56 84 109 113 75 35 33 40 37 41 34 16 16 16 27 33 24 17 69 156 168 103 116 136 42 117 177 81 72 52 70 59 35 66 126 138 185 185 163 165 136 92 84 83
75 82 69 50 98 111 72 34 25 26 31 23 20 18 16 12 12 23 23 16 28 55 172 144 29 139 107 96 70 57 98 82 67 67 77 119 96 121 148 180 213 214 151 115 137 71 93
77 68 75 75 112 95 29 28 14 25 19 13 9 9 20 15 5 8 19 45 53 78 115 78 112 181 105 115 68 73 66 92 83 102 130 107 136 141 169 209 179 117 128 123 121 156 111
69 68 66 90 114 59 14 2 24 6 10 -22 -30 2 11 24 17 -30 -6 0 23 83 80 209 102 188 84 73 108 69 92 81 95 115 144 106 83 133 106 70 143 151 160 167 129 110 86
75 78 48 99 101 36 3 -2 4 -15 -28 -61 -46 -16 12 18 41 39 -13 5 33 101 65 154 119 263 55 98 107 47 79 99 98 125 145 179 98 102 73 75 124 118 105 98 75 76 54
71 74 53 103 81 13 -4 -27 -23 -33 -50 -57 -31 -26 -4 -3 13 35 -27 9 14 89 -15 151 141 218 132 106 111 102 81 114 118 123 125 92 56 106 108 128 99 100 95 104 104 29 -29
63 80 74 103 55 17 -10 -26 -33 -21 -40 -19 -15 4 21 -8 11 64 -13 18 29 90 225 135 121 192 171 69 153 147 121 128 129 113 93 85 83 62 100 107 84 104 63 36 54 61 73
64 77 85 103 40 31 13 -3 -31 -22 -15 18 -4 4 0 -8 89 32 2 -15 -14 104 252 155 102 148 158 159 125 71 183 130 141 177 137 105 99 105 107 94 107 88 86 51 37 45 27
55 83 73 90 31 31 17 20 10 -11 3 -1 -4 18 42 13 -2 16 4 -11 125 133 231 144 142 142 153 132 204 164 187 166 134 155 172 127 110 115 85 123 111 67 86 72 42 34 73
40 77 77 56 29 31 19 15 7 -3 4 33 52 56 32 34 50 46 39 115 159 347 203 167 216 168 139 181 165 153 161 154 125 145 121 132 130 116 108 143 143 109 96 102 105 99 69
36 57 72 39 13 21 18 16 6 30 98 81 43 50 75 89 27 53 96 96 259 243 194 108 150 188 190 153 143 111 126 136 134 125 158 105 84 52 71 76 45 79 66 56 60 55 44
35 53 78 24 10 19 11 11 5 51 69 37 26 83 87 104 53 66 115 138 263 297 285 244 225 226 179 163 136 111 132 79 87 84 46 94 94 64 52 93 70 46 63 68 65 38 54
36 48 74 13 4 3 3 20 46 77 43 20 66 52 93 113 57 60 124 228 183 237 146 248 208 150 148 124 138 114 79 56 40 59 70 49 75 52 58 75 86 75 66 93 92 52 46
41 43 53 7 -4 -8 10 43 37 39 30 41 87 110 141 84 35 84 209 223 185 103 226 168 72 134 109 132 102 74 30 64 32 45 60 89 49 77 47 41 65 83 77 96 95 100 51
44 43 40 16 -1 -20 1 -3 49 41 68 61 75 117 97 36 145 163 148 88 95 142 114 94 42 58 90 97 67 61 27 55 7 31 35 78 40 40 50 54 47 73 51 135 102 58 106
38 43 25 15 -29 -33 -20 28 61 68 52 76 97 121 114 65 108 134 213 175 187 99 39 39 45 70 104 64 40 56 51 59 -7 36 65 56 51 59 53 35 71 49 74 98 73 36 112
31 44 20 6 -56 -45 -18 68 58 95 78 45 49 55 116 82 83 63 86 92 -7 64 45 27 31 41 69 70 57 63 82 88 62 34 34 54 23 8 6 8 45 38 -6 20 77 137 157
24 44 26 -9 -24 -38 -33 -1 81 104 107 14 24 31 57 69 26 42 78 29 2 17 34 -7 -26 -62 18 57 53 66 67 92 90 63 55 45 18 6 -3 -10 -15 -28 1 38 189 287 267
17 35 36 -2 3 25 26 10 12 124 65 -41 -20 16 29 67 54 39 12 -13 6 22 40 39 -20 9 18 47 58 41 47 52 37 55 72 66 20 17 13 16 -14 27 49 84 127 132 253
21 16 37 13 8 8 62 82 38 45 -7 -15 -11 1 7 49 21 -2 -12 -23 -12 10 -5 32 17 41 71 47 72 61 33 7 22 78 120 62 31 12 15 12 -3 25 16 60 68 113 166
8 11 22 17 9 12 6 38 83 74 -3 -10 -21 -12 -11 2 19 9 5 -7 -3 5 -15 3 28 47 35 41 32 59 72 64 65 36 57 61 60 26 12 3 28 14 -2 41 115 102 135
3 22 12 22 12 13 6 1 11 65 88 -11 -17 -10 7 20 18 62 67 37 35 34 26 25 34 24 13 39 69 53 62 60 37 27 47 71 56 12 14 16 42 22 6 -12 8 44 52
28 22 17 17 22 15 9 6 -2 9 55 46 -8 -10 -2 16 33 16 58 75 77 59 55 40 24 28 44 64 79 50 28 30 43 37 46 72 40 25 14 20 42 32 18 23 49 -4 42
62 29 27 18 15 14 20 10 2 8 13 36 32 44 16 5 8 73 40 74 91 81 63 51 33 36 48 65 65 56 57 57 36 22 38 43 26 11 20 33 43 42 22 44 6 -15 85
90 28 40 22 17 7 17 8 11 5 13 36 49 66 64 44 -40 51 99 63 59 73 78 49 78 55 65 64 57 54 57 73 61 44 36 48 19 20 33 37 27 31 19 -3 11 27 52
90 41 31 29 26 18 22 22 15 33 20 39 41 65 86 73 34 87 55 73 43 35 43 67 72 59 49 71 51 50 49 61 57 49 68 42 42 5 11 14 44 25 -5 9 19 28 25
Wind_Speed
73 69 67 71 75 76 77 77 81 83 83 81 76 75 76 79 76 76 74 73 74 74 73 69 65 30 35 56 58 41 33 32 36 39 44 48 50 50 54 58 60 69 67 63 64 69 65
73 73 72 75 71 72 77 82 85 84 82 78 74 74 72 74 75 77 76 74 75 73 74 70 63 25 41 67 48 42 33 33 40 40 47 47 48 49 53 52 57 52 65 69 67 63 62
73 74 76 72 69 78 83 86 85 82 76 71 70 69 66 66 69 69 71 72 74 71 72 70 61 37 46 60 44 41 30 30 36 39 42 47 45 48 46 53 51 52 54 59 60 60 65
76 76 76 72 76 82 84 83 83 75 72 66 64 60 60 64 67 68 69 67 69 69 68 66 57 49 54 52 56 46 33 33 35 41 41 40 43 47 45 43 44 51 54 71 58 64 65
77 79 78 74 79 83 82 81 75 71 68 60 58 54 56 61 67 66 65 65 67 67 67 64 56 44 48 38 48 49 42 35 28 34 34 28 35 44 46 49 50 51 65 64 67 57 57
74 75 75 75 80 82 79 77 72 67 62 54 49 45 8 14 25 56 58 61 65 63 58 55 60 46 49 44 36 40 44 40 33 27 27 36 42 49 49 48 62 59 60 60 61 53 53
75 75 73 77 81 81 77 73 68 63 58 50 33 8 8 12 8 41 55 46 41 48 56 55 46 44 35 34 30 39 37 37 37 35 42 42 50 55 57 49 40 43 50 58 62 59 65
75 78 72 79 80 78 75 70 63 60 54 49 27 15 9 6 13 48 48 43 40 37 62 58 54 45 23 23 32 36 38 36 41 42 29 38 51 40 41 46 54 55 59 64 62 53 65
73 75 73 81 80 76 73 69 61 58 54 48 37 27 12 33 44 20 38 41 39 41 54 61 50 41 24 26 31 30 34 34 34 41 42 37 38 35 35 39 43 44 50 53 59 63 57
70 77 75 83 80 75 72 68 61 57 61 47 39 59 67 55 15 25 36 34 41 44 55 54 47 46 37 22 30 31 29 31 34 42 36 41 35 35 42 43 43 50 44 45 52 58 69
69 75 77 82 79 75 75 70 63 57 59 45 20 34 53 50 24 37 33 36 43 45 51 53 46 36 34 39 23 35 32 31 32 29 31 40 41 37 42 51 44 48 38 43 48 55 63
68 76 78 81 77 76 78 74 64 61 49 33 25 22 32 20 23 30 36 43 47 44 48 45 38 41 34 26 33 29 29 27 24 24 27 32 31 35 36 32 36 30 39 44 47 50 62
69 74 78 80 78 78 80 74 71 54 28 25 17 13 6 26 24 44 45 42 46 43 39 45 48 42 29 32 28 31 28 29 35 34 36 33 33 31 29 32 32 31 35 48 50 49 56
70 78 78 79 78 78 79 73 70 41 30 17 10 21 18 16 34 46 46 35 37 40 44 40 42 34 35 26 31 28 26 33 31 29 31 35 39 38 34 34 35 34 33 36 50 48 50
68 77 79 78 76 77 78 71 61 30 23 16 26 31 36 28 43 32 26 21 28 42 42 47 35 37 36 31 32 33 41 37 37 34 32 34 35 31 31 30 27 33 37 35 47 51 58
68 76 80 75 76 78 75 62 40 26 15 28 41 43 40 31 30 28 23 18 27 37 40 42 44 46 43 35 34 37 43 50 44 42 31 32 29 29 28 29 34 30 17 35 39 51 58
69 77 79 72 71 71 65 35 29 25 16 32 41 35 34 21 31 20 15 21 27 40 34 40 39 38 33 34 32 38 46 41 59 54 44 35 30 32 27 34 25 26 31 33 36 40 50
67 74 75 69 66 66 56 42 27 22 15 37 33 39 29 21 26 39 37 20 28 35 40 41 31 30 38 34 38 43 58 43 56 53 52 39 33 34 39 36 32 35 40 27 41 48 44
66 69 71 68 59 51 42 26 28 21 14 35 49 40 32 27 24 34 40 34 32 21 27 35 33 33 21 33 34 40 42 44 54 45 46 37 34 34 37 40 39 40 30 10 31 52 13
62 66 68 66 55 44 26 14 33 30 2 40 36 48 36 22 28 26 14 14 14 8 7 13 19 14 25 33 34 31 34 30 30 36 31 26 37 42 42 39 30 39 45 38 32 19 26
59 62 66 67 58 31 25 14 33 41 22 35 39 46 40 38 25 14 20 12 8 10 19 6 2 3 27 30 21 26 31 27 26 26 27 29 41 44 53 55 56 54 49 42 40 40 34
56 60 62 65 68 62 8 8 9 45 41 44 44 37 25 31 25 17 15 11 9 13 15 14 17 33 28 23 35 14 22 30 30 30 26 29 41 41 48 45 49 48 45 42 41 41 37
52 58 57 61 63 65 53 34 23 20 21 37 32 20 19 26 23 20 20 18 19 18 23 20 15 13 11 18 18 20 23 17 25 17 24 26 34 40 43 40 45 45 43 35 28 18 14
50 56 55 57 57 59 59 53 41 37 5 28 28 26 22 26 29 29 27 27 29 29 25 27 27 21 14 25 21 22 23 21 16 20 19 24 24 38 43 40 41 35 34 31 26 25 13
51 55 53 55 55 55 57 56 52 45 42 27 24 25 25 23 18 31 32 27 27 30 30 27 26 24 23 19 22 22 27 30 35 29 17 21 23 40 41 42 45 38 31 33 33 33 18
52 53 53 53 53 53 54 55 56 54 49 43 25 25 19 17 20 17 18 24 27 28 29 26 24 26 22 20 28 40 39 38 36 35 29 21 34 42 37 40 40 36 33 37 37 30 26
51 52 55 52 52 52 51 52 52 53 52 46 22 37 16 8 11 10 10 8 27 24 27 24 24 26 25 25 32 40 45 39 41 40 34 30 39 53 49 45 47 45 39 31 38 43 25
52 53 55 52 51 52 48 49 48 49 50 45 37 36 29 17 9 1 8 9 19 21 26 26 25 27 23 26 31 35 40 42 42 36 30 27 36 41 41 44 50 34 34 40 47 35 27
53 53 55 54 52 52 51 50 49 47 47 42 37 41 42 20 22 35 49 63 30 31 28 18 34 25 22 24 28 31 36 38 39 43 35 45 39 38 40 43 43 41 50 49 50 56 44
Wind_Direction
359 1 2 1 358 356 352 350 347 343 340 335 331 325 319 312 306 301 296 288 285 275 271 267 275 260 265 254 256 271 268 234 239 240 238 241 243 245 246 251 254 255 259 263 265 266 269
359 0 2 359 358 357 354 351 349 346 343 340 336 330 325 317 309 300 293 287 279 274 264 260 265 252 258 248 262 261 266 237 239 238 240 240 245 248 253 256 250 264 260 263 265 269 273
359 1 0 1 358 355 352 351 350 349 348 346 342 337 332 325 314 305 295 287 277 269 260 256 260 251 255 247 263 247 255 243 239 239 241 241 247 249 257 256 260 262 263 267 267 271 272
360 1 0 0 360 356 355 354 353 355 355 354 349 345 340 329 316 304 297 286 275 265 257 251 258 252 253 255 246 245 247 247 250 243 247 242 251 253 257 263 261 259 266 262 271 271 273
360 0 1 1 360 358 358 358 0 1 2 4 1 359 351 335 318 304 295 283 272 261 252 246 251 242 249 255 241 238 237 241 247 246 240 248 250 252 252 250 259 261 261 266 272 275 273
2 2 2 2 1 360 360 1 2 4 6 10 12 15 8 261 267 301 293 280 267 258 246 239 243 239 248 244 236 235 238 240 246 240 232 244 247 245 248 246 252 260 264 268 270 277 281
3 4 4 3 2 1 2 3 5 6 9 13 23 2 42 50 248 278 293 285 263 237 225 225 224 240 249 240 227 229 234 234 238 239 237 240 245 240 244 245 263 266 269 270 271 279 280
5 5 5 4 3 4 4 5 7 10 12 14 21 32 282 321 288 344 294 262 246 232 215 221 228 241 239 227 223 227 231 234 231 234 234 244 244 244 247 251 261 270 268 271 276 280 283
7 6 6 5 4 5 6 6 9 10 11 13 20 19 349 281 319 26 275 247 238 226 209 219 222 223 216 228 231 213 219 238 230 233 238 245 253 243 251 253 261 272 274 276 278 284 287
9 8 7 6 7 8 7 7 9 9 6 11 10 341 296 285 285 38 256 241 218 209 203 213 217 224 224 228 228 222 227 236 242 236 244 250 255 253 252 258 267 270 284 284 284 286 279
11 10 9 8 9 10 9 8 9 8 7 12 350 296 290 279 21 235 235 203 191 194 199 201 210 209 214 226 194 218 238 248 239 237 252 252 252 256 258 262 269 273 285 287 287 287 288
13 12 12 11 12 12 12 11 11 10 13 8 317 328 288 36 171 213 196 189 188 201 195 199 205 200 202 212 220 209 240 249 246 243 262 262 269 265 267 275 270 275 282 288 290 290 282
15 14 14 14 16 16 14 14 14 15 351 321 331 304 246 164 187 170 173 185 188 196 198 193 195 192 191 213 217 222 229 229 241 239 246 259 263 271 271 269 276 277 282 279 282 284 282
15 15 16 16 18 19 17 19 19 17 338 331 100 116 125 156 155 165 167 177 197 200 203 192 183 185 208 209 216 225 227 230 246 252 244 250 257 261 268 268 270 270 276 280 278 284 291
17 16 17 19 21 22 21 25 28 4 1 92 126 120 117 134 143 173 186 179 194 194 196 187 180 196 207 223 225 227 228 231 240 247 254 250 260 267 267 268 269 270 274 288 288 293 294
18 17 19 22 24 26 28 36 33 12 39 113 116 120 118 129 146 161 171 189 191 194 174 189 199 208 210 219 222 226 225 229 233 233 249 248 255 261 263 266 264 280 302 288 293 295 295
18 17 21 25 28 31 37 42 28 34 62 112 115 127 128 140 134 156 168 165 167 172 196 202 207 212 219 220 230 227 223 234 221 222 232 241 255 255 264 265 274 281 289 300 304 306 309
17 18 22 29 33 39 49 55 14 16 78 111 128 122 133 147 145 122 135 182 179 190 199 207 220 222 221 228 225 227 216 231 216 222 224 240 252 259 255 265 282 280 283 305 300 302 311
14 18 23 29 39 49 60 52 355 12 97 118 107 118 126 143 140 125 130 149 165 196 214 214 230 229 221 223 225 224 227 236 213 230 226 241 256 257 258 267 279 287 303 323 278 291 222
12 14 21 28 41 51 58 357 337 340 357 105 122 99 126 165 149 150 150 150 165 196 348 250 239 92 218 229 233 234 231 243 238 240 244 263 255 248 253 271 304 285 257 187 182 282 219
7 9 13 19 35 54 58 48 328 331 310 117 109 104 121 137 157 188 166 187 198 199 180 273 40 144 227 232 244 241 237 242 249 254 260 270 259 270 257 247 252 236 223 205 194 208 213
1 356 4 6 11 350 343 4 11 333 332 75 80 123 169 160 179 224 229 279 258 230 219 254 243 219 235 242 234 260 256 247 253 260 273 284 273 284 262 274 238 224 217 207 203 215 224
355 347 354 351 356 355 332 313 310 317 61 92 99 334 245 222 260 263 264 293 316 260 330 331 283 319 306 289 285 280 282 275 286 288 282 292 294 276 250 256 258 238 207 172 158 112 64
348 341 342 337 339 349 344 334 316 315 20 104 103 128 89 104 318 309 326 346 327 313 325 356 11 332 340 292 299 300 298 301 312 301 306 302 309 283 246 257 246 248 269 181 174 190 154
335 331 329 328 327 338 346 339 332 321 316 83 103 104 123 133 105 313 316 329 341 343 340 342 343 15 31 32 298 303 283 280 273 287 313 309 307 259 250 249 247 254 277 248 232 244 124
323 322 315 320 326 328 336 348 343 346 329 357 74 52 96 117 143 108 11 330 327 327 328 338 355 341 353 341 290 261 261 262 264 270 284 307 285 260 264 257 250 261 299 332 345 222 57
318 313 305 313 320 327 338 346 352 347 343 352 43 352 49 67 141 77 111 68 324 328 323 330 332 323 326 307 286 266 257 262 258 260 272 283 270 246 251 257 254 257 286 344 302 302 35
310 303 302 308 316 322 338 342 352 349 346 354 359 347 355 345 215 316 358 352 323 319 308 318 319 311 317 300 289 281 269 264 268 276 289 285 269 265 263 264 252 273 309 290 293 257 21
303 298 296 304 312 322 329 336 343 347 346 351 353 344 336 333 320 310 289 271 294 296 304 319 299 308 312 305 298 292 279 275 273 272 283 270 275 278 266 260 262 282 285 266 300 308 354